Content
SEND FEEDBACK

Daily
Averages
Monthly
Summary
United States of America

DEDEDO, GUAM


Home > North America > United States > Guam
Elevation: 111 meters     Latitude: 13 33N     Longitude: 144 49E

WEATHER
 
SELECT A DAY
Number of Records: 209,044;   Date Range: 1/1/95 - 7/29/14
 
SHARE

PRINT THIS DATA

[ ← Previous Day ]
WEATHER ALMANAC - 31 MARCH, 2013
[ Next Day → ]
[ °F ]   °C
Weather ElementAverageHighLow
Temperature28.8 °C31.7 °C (12:54 pm)27.2 °C (4:54 am)
Dewpoint22.8 °C23.3 °C (2:54 am)21.1 °C (1:54 pm)
Humidity70 %77 % (4:54 am)55 % (1:54 pm)
Barometer1012.9 hPa1014.6 hPa (8:54 am)1010.8 hPa (3:54 pm)
Wind Speed18.7 km/h25.9 km/h (1:54 pm)
Wind Gust35.2 km/h (1:54 pm)
Weather ElementAverage
Visibility16.1 km
Wind DirectionE (88.1 °)

Weather ElementTotal
Precipitation---
Cooling Degree Days11.2 (Base 18.3)
Growing Degree Days19.5 (Base 10)
Averaged from 27 records on 31 March, 2013
WEATHER CONDITIONS BREAKOUT
WIND DIRECTION BREAKOUT
WEATHER BY HOUR - 31 MARCH, 2013
[ °F ]   °C
Local TimeTemperatureDewpointHumidityBarometerVisibilityWind DirectionWind SpeedGust SpeedPrecipitationEventsConditions
1:54 AM27.8 °C22.8 °C74 %1012.2 hPa16.1 kmEast (90°)18.5 km/hClear
2:54 AM27.8 °C23.3 °C76 %1011.9 hPa16.1 kmEast (100°)18.5 km/hScattered Clouds
3:54 AM27.8 °C22.8 °C74 %1011.9 hPa16.1 kmEast (90°)16.7 km/hScattered Clouds
4:54 AM27.2 °C22.8 °C77 %1011.9 hPa16.1 kmEast (90°)18.5 km/hClear
5:54 AM27.8 °C22.2 °C71 %1012.5 hPa16.1 kmEast (90°)16.7 km/hMostly Cloudy
6:54 AM27.8 °C22.8 °C74 %1013.2 hPa16.1 kmEast (100°)14.8 km/hMostly Cloudy
7:54 AM28.3 °C22.2 °C69 %1014.2 hPa16.1 kmEast (90°)13 km/hMostly Cloudy
8:54 AM29.4 °C22.8 °C67 %1014.6 hPa16.1 kmEast (90°)18.5 km/hPartly Cloudy
9:54 AM29.4 °C23.3 °C69 %1014.6 hPa16.1 kmEast (90°)24.1 km/h31.5 km/hOvercast
10:54 AM30 °C22.8 °C65 %1014.2 hPa16.1 kmEast (90°)20.4 km/h29.6 km/h0 mmOvercast
11:54 AM29.4 °C22.2 °C65 %1013.9 hPa16.1 kmEast (80°)16.7 km/h29.6 km/h0 mmMostly Cloudy
12:54 PM31.7 °C22.2 °C57 %1012.5 hPa16.1 kmEast (100°)18.5 km/h29.6 km/hScattered Clouds
1:54 PM31.1 °C21.1 °C55 %1011.9 hPa16.1 kmEast (80°)25.9 km/h35.2 km/hPartly Cloudy
2:54 PM30.6 °C22.2 °C61 %1011.2 hPa16.1 kmEast (80°)25.9 km/h33.3 km/hPartly Cloudy
3:54 PM30.6 °C23.3 °C65 %1010.8 hPa16.1 kmEast (100°)18.5 km/h33.3 km/hPartly Cloudy
4:54 PM29.4 °C23.3 °C69 %1011.2 hPa16.1 kmEast (100°)20.4 km/hScattered Clouds
5:24 PM29 °C23 °C70 %1012.2 hPa16.1 kmEast (90°)20.4 km/hMostly Cloudy
5:31 PM29 °C23 °C70 %1012.2 hPa16.1 kmEast (90°)18.5 km/hPartly Cloudy
5:54 PM28.9 °C23.3 °C72 %1011.5 hPa16.1 kmEast (90°)16.7 km/hClear
6:54 PM28.3 °C23.3 °C74 %1011.9 hPa16.1 kmEast (90°)14.8 km/hPartly Cloudy
7:54 PM28.3 °C23.3 °C74 %1012.2 hPa16.1 kmEast (80°)14.8 km/hPartly Cloudy
8:54 PM28.3 °C23.3 °C74 %1012.9 hPa16.1 kmEast (80°)13 km/hPartly Cloudy
9:54 PM28.3 °C22.8 °C72 %1013.5 hPa16.1 kmEast (80°)20.4 km/hPartly Cloudy
10:54 PM28.3 °C22.8 °C72 %1013.5 hPa16.1 kmEast (80°)20.4 km/hMostly Cloudy
11:16 PM28 °C23 °C74 %1014.2 hPa16.1 kmEast (80°)20.4 km/hMostly Cloudy
11:28 PM28 °C23 °C74 %1014.2 hPa16.1 kmEast (80°)22.2 km/hScattered Clouds
11:54 PM27.8 °C23.3 °C76 %1013.2 hPa16.1 kmEast (80°)16.7 km/hPartly Cloudy
Hourly data recorded from PGUM, located 0 kilometers away from Dededo, Guam







STORIES FROM OUR PARTNERS